User: anonymous   Login
Location: Brno
(49.2000°N, 16.6330°E)
Time: 21:29:38
(UTC+01:00)
Language:

Cosmos 1459 Rocket - Orbit

View from above orbital plane
View from above orbital plane
View from above satellite
View from above satellite

Ground track
Ground track

The orbit data is extracted from the following two-line orbital elements,

1 14059U 83042B   15025.49725656  .00000084  00000-0  67198-4 0  4636
2 14059 082.9740 350.3580 0042348 198.6421 301.0883 13.78491245595384
Epoch (UTC): 25 January 2015 11:56:02
Eccentricity: 0.0042348
inclination: 82.9740°
perigee height: 938 km
apogee height: 1000 km
right ascension of ascending node: 350.3580°
argument of perigee: 198.6421°
revolutions per day: 13.78491245
mean anomaly at epoch: 301.0883°
orbit number at epoch: 59538

The dashed part of the orbit path shows where the satellite is in the earth's shadow,  

DLR